This is the latest recevied weather packets stored in our database for station/object N2ZVN. If no packets are shown the sender has not sent any weather packets the latest 10 day(s).
| Time | Temp. | Humidity | Pressure | Rain* | Wind** | Luminosity | Snow |
|---|---|---|---|---|---|---|---|
| 1788539779 | 24.44° C | 62% | 1016.1 hPa | 0 mm | - | 397 W/m² | - |
| 1788539468 | 25° C | 61% | 1016.1 hPa | 0 mm | - | 331 W/m² | - |
| 1788539168 | 25° C | 61% | 1016.2 hPa | 0 mm | - | 518 W/m² | - |
| 1788538863 | 25° C | 61% | 1016 hPa | 0 mm | - | 656 W/m² | - |
| 1788538558 | 25° C | 62% | 1016.1 hPa | 0 mm | - | 697 W/m² | - |
| 1788538253 | 25° C | 62% | 1016.2 hPa | 0 mm | - | 726 W/m² | - |
| 1788537948 | 25° C | 60% | 1016 hPa | 0 mm | - | 703 W/m² | - |
| 1788537645 | 25° C | 59% | 1016.1 hPa | 0 mm | - | 726 W/m² | - |
| 1788537343 | 25° C | 63% | 1016.1 hPa | 0 mm | - | 719 W/m² | - |
| 1788537038 | 25° C | 63% | 1016.1 hPa | 0 mm | - | 713 W/m² | - |
| 1788536746 | 24.44° C | 64% | 1016.1 hPa | 0 mm | - | 705 W/m² | - |
| 1788536427 | 24.44° C | 66% | 1016.1 hPa | 0 mm | - | 698 W/m² | - |
| 1788536126 | 24.44° C | 64% | 1016.2 hPa | 0 mm | - | 696 W/m² | - |
| 1788535823 | 24.44° C | 63% | 1016.1 hPa | 0 mm | - | 690 W/m² | - |
| 1788535518 | 23.89° C | 66% | 1016.2 hPa | 0 mm | - | 679 W/m² | - |
| 1788535222 | 23.89° C | 66% | 1016 hPa | 0 mm | - | 668 W/m² | - |
| 1788534909 | 24.44° C | 64% | 1015.8 hPa | 0 mm | - | 662 W/m² | - |
| 1788534609 | 23.89° C | 66% | 1016.1 hPa | 0 mm | - | 655 W/m² | - |
| 1788534303 | 23.89° C | 67% | 1016 hPa | 0 mm | - | 642 W/m² | - |
| 1788534003 | 23.89° C | 64% | 1016 hPa | 0 mm | - | 629 W/m² | - |
| 1788533698 | 23.89° C | 65% | 1015.9 hPa | 0 mm | - | 630 W/m² | - |
| 1788533393 | 23.89° C | 64% | 1015.9 hPa | 0 mm | - | 368 W/m² | - |
| 1788533089 | 23.33° C | 71% | 1015.9 hPa | 0 mm | - | 628 W/m² | - |
| 1788532784 | 23.33° C | 72% | 1015.8 hPa | 0 mm | - | 521 W/m² | - |
| 1788532480 | 23.33° C | 71% | 1015.9 hPa | 0 mm | - | 550 W/m² | - |
* Rain latest hour (hover to see other rain measurements)
** Current wind speed in m/s (hover to see current wind gust speed)